User: anonymous   Login
Location: Unspecified
(0.0000°N, 0.0000°E)
Time: 04:34:35
(UTC+00:00)
Language:

UNK - Orbit

View from above orbital plane
View from above orbital plane
View from above satellite
View from above satellite

Ground track
Ground track

The orbit data is extracted from the following two-line orbital elements,

1 27945U 03042G   24206.35434472  .00001318  00000-0  24726-3 0  9999
2 27945  98.2992 351.5707 0011643   0.7481 359.3737 14.66397007112432
Epoch (UTC): 24 July 2024 08:30:15
Eccentricity: 0.0011643
inclination: 98.2992°
perigee height: 664 km
apogee height: 681 km
right ascension of ascending node: 351.5707°
argument of perigee: 0.7481°
revolutions per day: 14.66397007
mean anomaly at epoch: 359.3737°
orbit number at epoch: 11243

The dashed part of the orbit path shows where the satellite is in the earth's shadow,  

DLR